Regional Weather Roundup
Issued by NWS

Home | Current Version | Previous Version | Graphics & Text | Print | Product List | Glossary On
Versions: 1 2 3 4 5 6 7 8 9 10 11 12 13 14 15 16 17 18 19 20 21 22 23 24 25 26 27 28 29 30 31 32 33 34 35 36 37 38 39 40 41 42 43 44 45 46 47 48 49 50
000
ASUS45 KSLC 172210
RWRUT

UTAH REGIONAL WEATHER ROUNDUP
NATIONAL WEATHER SERVICE SALT LAKE CITY UT
300 PM MST TUE JAN 17 2017

UTZ001>011-023>025-172300-

NORTHERN UTAH

CITY           SKY/WX    TMP DP  RH WIND       PRES   REMARKS
BRIGHAM CITY     N/A     22  14  69 CALM      30.27S
HILL AFB       SUNNY     27  12  52 CALM      30.22S
LOGAN          SUNNY     10   5  80 N3        30.27S
OGDEN          SUNNY     24  15  68 NW7       30.24R WCI  16
SALT LAKE CITY MOSUNNY   30  21  69 NW8       30.24S WCI  22
TOOELE VALLEY  SUNNY     30  23  74 N8        30.25R WCI  23
WENDOVER       CLOUDY    25  18  74 SW5       30.25F WCI  19
HEBER CITY     SUNNY     18   7  62 CALM      30.17F
WEST JORDAN    SUNNY     32  23  69 CALM      30.22S

$$

UTZ011>015-024>027-172300-

CENTRAL/NORTHEAST UTAH

CITY           SKY/WX    TMP DP  RH WIND       PRES   REMARKS
PROVO AIRPORT  SUNNY     28  19  69 VRB6      30.24F WCI  22
MOAB/CANYONLAN SUNNY     41  22  46 NW7       30.17S
DELTA          PTSUNNY   30  23  74 CALM      30.21F
PRICE          SUNNY     29  13  51 CALM      30.16F
ROOSEVELT      FLURRIES  21  16  79 CALM      30.29S
VERNAL         CLOUDY    20  14  77 CALM      30.26F

$$

UTZ013>016-019>022-027-172300-

SOUTHERN UTAH

CITY           SKY/WX    TMP DP  RH WIND       PRES   REMARKS
BRYCE CANYON   SUNNY     31  18  58 SE8       30.13S WCI  23
CEDAR CITY     SUNNY     35  20  54 W5        30.15S WCI  31
MILFORD        SUNNY     34  21  59 NE8       30.18F WCI  27
ST GEORGE      CLEAR     48  25  40 CALM      30.17S
HANKSVILLE     SUNNY     43  21  42 MISG      30.20S
BLANDING       CLOUDY    43  30  62 CALM      30.20R

$$

REGIONAL REPORTS     COLORADO/ARIZONA

CITY           SKY/WX    TMP DP  RH WIND       PRES   REMARKS
CRAIG, CO      CLOUDY    18  12  77 CALM      30.20F
GRAND JUNCTION MOSUNNY   43  27  53 N3        30.16S
RIFLE, CO      MOSUNNY   40  24  53 CALM      30.15S
MONTROSE, CO   MOSUNNY   42  29  59 VRB3      30.16F
CORTEZ, CO     CLOUDY    45  35  68 S13       30.12S
COLORADO CITY    N/A     48  28  46 S3        30.15S
PAGE, AZ       SUNNY     45  21  38 CALM      30.14S
GRAND CANYON   SUNNY     42  27  55 NE10      30.12F
KINGMAN, AZ    SUNNY     53  18  25 N8        30.10S
FLAGSTAFF, AZ  CLOUDY    37  28  70 NE8       30.11S WCI  31

$$

REGIONAL REPORTS    NEVADA/IDAHO/WYOMING

CITY           SKY/WX    TMP DP  RH WIND       PRES   REMARKS
LAS VEGAS, NV  SUNNY     54  13  19 VRB5      30.12F
ELY, NY        SUNNY     34  10  37 NE3       30.14S
ELKO, NV       SUNNY     20  10  65 NE9       30.19F WCI   9
POCATELLO, ID  CLOUDY    17   7  64 NE9       30.24R WCI   6
BURLEY, ID     SUNNY     22  12  65 NE17      30.17F WCI   8
FORT BRIDGER,    N/A     13   4  68 S3        30.14S
EVANSTON, WY   CLOUDY    17   8  67 SE5       30.12S WCI  10
ROCK SPRINGS,  CLOUDY     6   1  80 CALM      30.13F

$$



USA.gov is the U.S. government's official web portal to all federal, state and local government web resources and services.